{"data":{"norad_id":42815,"epoch":"2026-09-20T01:58:07.055040Z","epoch_age_seconds":54361,"freshness":"FRESH","line1":"1 42815U 17040B   26263.08202610 -.00000262  00000+0  00000+0 0  9999","line2":"2 42815   0.0158 118.0752 0004204 129.4887 234.4579  1.00272969 33746","mean_motion":1.00272969,"eccentricity":0.0004204,"inclination_deg":0.0158,"raan_deg":118.0752,"arg_perigee_deg":129.4887,"mean_anomaly_deg":234.4579,"bstar":0,"rev_number":3374,"period_min":1436.0799469297,"perigee_km":35768.537132497,"apogee_km":35803.988960056,"semimajor_km":42164.400046276,"source":"CELESTRAK","updated_at":"2026-09-20T09:00:35.255232Z"}}